Tracking 17925 objects as of 20-February-2017
HD Live streaming from Space Station
objects crossing your sky now

COSMOS 2251 DEB

Track COSMOS 2251 DEB now!
10-day predictions


NORAD ID: 35442
Int'l Code: 1993-036AKL
Perigee: 743.3 km
Apogee: 764.5 km
Inclination: 74.0 °
Period: 99.8 minutes
Semi major axis: 7124 km
RCS: 0.0032 m2 (small)
Launch date: June 16, 1993
Source: Commonwealth of Independent States (former USSR) (CIS)
Launch site: PLESETSK MISSILE AND SPACE COMPLEX (PKMTR)

Note: This is SATELLITE DEBRIS
Your satellite tracking list
Your tracking list is empty





NASA's NSSDC Master Catalog

Two Line Element Set (TLE):
1 35442U 93036AKL 17049.93643458 +.00000917 +00000-0 +27820-3 0  9991
2 35442 074.0421 034.6410 0014880 166.6679 216.0162 14.43549712406590
Source of the keplerian elements: AFSPC